Charleston, SC

2:42 PM EST on February 22, 2018 (GMT -0500)
Charleston Air Force Base-International

Weather History for KCHS - October, 2011

Change the Weather History Date:

Saturday, October 29, 2011

  Actual Average Record
Temperature  
Mean Temperature 54 °F 63 °F  
Max Temperature 63 °F 74 °F 85 °F (1946)
Min Temperature 45 °F 52 °F 27 °F (1976)
Degree Days  
Heating Degree Days 11 4  
Month to date heating degree days 69 58  
Since 1 July heating degree days 69 61  
Cooling Degree Days 0 2  
Month to date cooling degree days 77 122  
Year to date cooling degree days 2664 2260  
Growing Degree Days 4 (Base 50)    
Moisture  
Dew Point 47 °F    
Average Humidity 74    
Maximum Humidity 100    
Minimum Humidity 47    
Precipitation  
Precipitation 0.01 in 0.09 in 2.60 in (1959)
Month to date precipitation 1.91 3.57  
Year to date precipitation 34.96 45.31  
Snow  
Snow 0.00 in 0.00 in - ()
Month to date snowfall 0.0  
Since 1 July snowfall 0.0 0.0  
Since 1 September snowfall 0.0 0.0  
Snow Depth 0.00 in    
Sea Level Pressure  
Sea Level Pressure 29.95 in    
Wind  
Wind Speed 12 mph (North)    
Max Wind Speed 24 mph    
Max Gust Speed 29 mph    
Visibility 8 miles    
Events Rain    
T = Trace of Precipitation, MM = Missing Value Source: NWS Daily Summary

Daily Weather History Graph

Daily Weather History Graph

Search for Another Location

Airport or City:

Trip Planner

Search our weather history database for the weather conditions in past years. The results will help you decide how hot, cold, wet, or windy it might be!

Date:

Astronomy

Oct. 29, 2011 Rise Set
Actual Time 7:35 AM EDT 6:32 PM EDT
Civil Twilight 7:09 AM EDT 6:57 PM EDT
Nautical Twilight 6:40 AM EDT 7:26 PM EDT
Astronomical Twilight 6:12 AM EDT 7:55 PM EDT
Moon 10:45 AM EDT (10/29) 9:03 PM EDT (10/29)
Length of Visible Light 11h 47m
Length of Day
10h 56m
Waxing Crescent, 11% of the Moon is Illuminated
Oct 29
Waxing Crescent
Nov 2
First Quarter
Nov 10
Full
Nov 18
Last Quarter
Nov 25
New

Hourly Weather History & Observations

Time (EDT) Temp. Windchill Dew Point Humidity Pressure Visibility Wind Dir Wind Speed Gust Speed Precip Events Conditions
12:56 AM 57.9 °F - 52.0 °F 81% 29.94 in 10.0 mi NNE 6.9 mph - N/A   Overcast
1:56 AM 57.9 °F - 53.1 °F 84% 29.91 in 10.0 mi ENE 10.4 mph - N/A   Overcast
2:56 AM 55.9 °F - 52.0 °F 87% 29.90 in 10.0 mi North 6.9 mph - N/A   Overcast
3:56 AM 55.0 °F - 52.0 °F 89% 29.89 in 10.0 mi North 10.4 mph - N/A   Overcast
4:42 AM 53.6 °F - 51.8 °F 94% 29.88 in 10.0 mi North 8.1 mph - N/A   Overcast
4:56 AM 54.0 °F - 51.1 °F 90% 29.89 in 9.0 mi North 8.1 mph - N/A   Overcast
5:56 AM 54.0 °F - 51.1 °F 90% 29.88 in 8.0 mi NNE 5.8 mph - 0.00 in Rain Light Rain
6:56 AM 54.0 °F - 53.1 °F 97% 29.88 in 7.0 mi Calm Calm - 0.00 in Rain Light Rain
7:56 AM 52.0 °F - 52.0 °F 100% 29.89 in 2.0 mi North 11.5 mph - 0.01 in   Overcast
8:08 AM 51.8 °F - 51.8 °F 100% 29.90 in 0.2 mi NNW 16.1 mph - N/A   Overcast
8:56 AM 51.1 °F - 51.1 °F 100% 29.91 in 0.8 mi North 12.7 mph - N/A   Overcast
9:04 AM 51.8 °F - 51.8 °F 100% 29.93 in 1.5 mi NNW 15.0 mph - N/A   Overcast
9:13 AM 50.0 °F - 50.0 °F 100% 29.94 in 2.0 mi NNW 15.0 mph - N/A   Overcast
9:30 AM 50.0 °F - 50.0 °F 100% 29.95 in 2.5 mi NNW 19.6 mph 26.5 mph N/A   Overcast
9:56 AM 50.0 °F - 48.9 °F 96% 29.96 in 2.5 mi NNW 13.8 mph - 0.00 in Rain Light Rain
10:17 AM 50.0 °F - 48.2 °F 94% 29.96 in 4.0 mi NNW 9.2 mph - 0.00 in   Overcast
10:54 AM 51.8 °F - 48.2 °F 88% 29.94 in 10.0 mi North 13.8 mph 19.6 mph 0.00 in   Overcast
10:56 AM 51.1 °F - 48.9 °F 92% 29.95 in 10.0 mi NNW 12.7 mph 19.6 mph 0.00 in   Overcast
11:16 AM 51.8 °F - 48.2 °F 88% 29.94 in 10.0 mi NNW 11.5 mph - N/A   Overcast
11:56 AM 54.0 °F - 48.0 °F 80% 29.94 in 10.0 mi NNW 15.0 mph - N/A   Overcast
12:19 PM 57.2 °F - 48.2 °F 72% 29.95 in 10.0 mi NNW 16.1 mph 24.2 mph N/A   Scattered Clouds
12:56 PM 60.1 °F - 46.9 °F 62% 29.93 in 10.0 mi NW 19.6 mph 26.5 mph N/A   Partly Cloudy
1:56 PM 62.1 °F - 46.0 °F 56% 29.91 in 10.0 mi North 17.3 mph 28.8 mph N/A   Partly Cloudy
2:56 PM 63.0 °F - 44.1 °F 50% 29.92 in 10.0 mi NNW 19.6 mph 24.2 mph N/A   Partly Cloudy
3:56 PM 63.0 °F - 43.0 °F 48% 29.93 in 10.0 mi North 19.6 mph - N/A   Partly Cloudy
4:56 PM 62.1 °F - 42.1 °F 48% 29.95 in 10.0 mi NNW 19.6 mph - N/A   Partly Cloudy
5:56 PM 59.0 °F - 39.9 °F 49% 29.97 in 10.0 mi North 18.4 mph 23.0 mph N/A   Partly Cloudy
6:56 PM 53.1 °F - 41.0 °F 64% 30.00 in 10.0 mi NNW 9.2 mph - N/A   Clear
7:56 PM 51.1 °F - 41.0 °F 68% 30.03 in 10.0 mi NNW 9.2 mph - N/A   Clear
8:56 PM 48.0 °F - 41.0 °F 77% 30.06 in 10.0 mi NNW 8.1 mph - N/A   Clear
9:56 PM 46.0 °F 42.5 °F 39.0 °F 76% 30.10 in 10.0 mi North 6.9 mph - N/A   Clear
10:56 PM 46.9 °F - 37.0 °F 68% 30.13 in 10.0 mi North 10.4 mph - N/A   Clear
11:56 PM 50.0 °F - 32.0 °F 50% 30.15 in 10.0 mi North 9.2 mph - N/A   Clear